DELTA 1 DEB (YO), 312

Orbit data source: Space-Track

DELTA 1 DEB (YO), 312 is space debris in LEO originally from a launch on Tue, 19 Jun 1962 UTC launched from the Air Force Eastern Test Range (AFETR). Debris objects in space refer to the collection of defunct objects orbiting the Earth. Examples of debris include non-operational satellites, rocket bodies, and fragments generated from explosions, collisions, or faulty payload assembly.

Loading next visibility...
Identifier
312, 1962-025C
Orbit
LEO
Last TLE update
15 hours ago
Origin
Manufacturer
RCA/East Windsor
Mission
Spacecraft
Bus & Motor
Unknown
Mass
~1 kg wet, ~1 kg dry
Launch date (UTC)
1962-06-19 (63 years ago)
Launch vehicle
Unknown
Launch site
Air Force Eastern Test Range (AFETR)
Object type
Payload
Rocket body
Debris
Shape & HBR
Unknown
Radar Cross Section
Small (<0.1 m²)

Expand to show TLE details & history

TLE from 15 hours ago
0 DELTA 1 DEB (YO)
1 00312U 62025C   25183.47819527  .00000662  00000-0  13815-3 0  9998
2 00312  58.2452 226.0983 0191602 196.1539 163.3330 14.60677836307802
Epoch: 2025-07-02T11:28Z
TLE epoch observation values (Epoch: 2025-07-02T11:28:36.071Z)
Latitude
-0.00004°
Longitude
133.18926°
Altitude
822.34 km
Speed
7.374 km/s
True Right ascension
15h 04m 23s
True Declination
0° 00' 00"
Sunlit
Object was in full shadow at epoch
Visualization orbit readout
Latitude
-11.26657°
Longitude
123.89922°
Altitude
811.063 km
Speed
7.386 km/s
Apparent Right ascension
15h 32m 55s
Apparent Declination
-67° 16' 52"
Sunlit
Object is in partial shadow
Visualization observer readout
Local Sidereal Time
13:56:51
Azimuth
170.445° S
Elevation
-18.742°
Doppler factor
1
Orbital elements
Apogee altitude
825.899 km
Perigee altitude
555.028 km
Semi-major axis
7,068.601 km
Eccentricity
0.01916
Inclination
58.2452°
RAAN
226.0983°
Arg. of periapsis
196.1539°
True anomaly
Unknown
Mean anomaly
163.333°
Eccentric anomaly
Unknown
Mean motion
3.6521 °/min
Orbital period
98.57 mins
BSTAR
0.00013815
Loading maneuver chart data...
Loading SW <> Apogee altitude chart data...
Loading historical data...
Loading historical data...
Loading historical data...
Loading historical data...
Loading historical data...
Loading historical data...
Loading historical data...
Other satellites on launch #25 in the year 1962 (1962-06-19 UTC)

DELTA 1 DEB (YO) Visibility forecast

Observer location: undefined°, undefined°

Span
Click to sort rows by Start time (UTC) header in descending order
Start Az.
Max El. time (UTC)
Max El. Az.
Max El.
End time (UTC)
End Az.
8 mins2025-07-03 04:01:52.960Z174.18° S2025-07-03 04:05:52.960Z121.274° SE25.759°2025-07-03 04:09:52.960Z67.191° ENE
9 mins2025-07-03 05:43:52.960Z245.025° WSW2025-07-03 05:47:52.960Z313.426° NW38.364°2025-07-03 05:52:52.960Z32.616° NE
4 mins2025-07-03 07:29:52.960Z318.748° NNW2025-07-03 07:30:52.960Z331.303° NNW15.064°2025-07-03 07:33:52.960Z8.289° NNE
4 mins2025-07-03 10:57:52.960Z356.214° N2025-07-03 10:59:52.960Z23.642° NE15.717°2025-07-03 11:01:52.960Z52.367° ENE
7 mins2025-07-03 12:39:52.960Z326.043° NNW2025-07-03 12:42:52.960Z30.844° NE42.809°2025-07-03 12:46:52.960Z128.847° SE
|